Time,TemperatureF,DewpointF,PressureIn,WindDirection,WindDirectionDegrees,WindSpeedMPH,WindSpeedGustMPH,Humidity,HourlyPrecipIn,Conditions,Clouds,dailyrainin,SoftwareType,DateUTC
2013-10-10 00:01:00,48.8,46.0,30.29,NNE,25,0.0,0.0,90,0.00,,,0.00,Wunderground PWS Mod,2013-10-10 04:01:00,
2013-10-10 00:02:00,48.8,46.3,30.29,NNE,25,0.0,0.0,91,0.00,,,0.00,Wunderground PWS Mod,2013-10-10 04:02:00,
2013-10-10 00:03:00,48.8,46.3,30.29,NNE,25,0.0,0.0,91,0.00,,,0.00,Wunderground PWS Mod,2013-10-10 04:03:00,
2013-10-10 00:05:00,48.8,46.3,30.29,North,355,0.0,3.0,91,0.00,,,0.00,Wunderground PWS Mod,2013-10-10 04:05:00,
2013-10-10 00:11:00,48.7,46.2,30.29,NNE,19,0.0,3.0,91,0.00,,,0.00,Wunderground PWS Mod,2013-10-10 04:11:00,
2013-10-10 00:12:00,48.7,46.5,30.29,N/A,-737280,0.0,0.0,92,0.00,,,0.00,Wunderground PWS Mod,2013-10-10 04:12:00,
2013-10-10 00:15:00,48.7,46.2,30.29,North,5,0.0,3.0,91,0.00,,,0.00,Wunderground PWS Mod,2013-10-10 04:15:00,
2013-10-10 00:20:00,48.7,46.2,30.29,NNE,33,0.0,3.0,91,0.00,,,0.00,Wunderground PWS Mod,2013-10-10 04:20:00,
2013-10-10 00:25:00,48.7,46.2,30.29,NE,37,0.0,3.0,91,0.00,,,0.00,Wunderground PWS Mod,2013-10-10 04:25:00,
2013-10-10 00:30:00,48.7,46.5,30.29,NE,37,0.0,3.0,92,0.00,,,0.00,Wunderground PWS Mod,2013-10-10 04:30:00,
2013-10-10 00:35:00,48.6,46.4,30.29,NE,37,0.0,3.0,92,0.00,,,0.00,Wunderground PWS Mod,2013-10-10 04:35:00,
2013-10-10 00:40:00,48.6,46.4,30.29,NE,37,0.0,3.0,92,0.00,,,0.00,Wunderground PWS Mod,2013-10-10 04:40:00,
2013-10-10 00:45:00,48.6,46.4,30.29,NNW,346,0.0,3.0,92,0.00,,,0.00,Wunderground PWS Mod,2013-10-10 04:45:00,
2013-10-10 00:51:00,48.6,46.4,30.29,North,349,0.0,3.0,92,0.00,,,0.00,Wunderground PWS Mod,2013-10-10 04:51:00,
2013-10-10 00:56:00,48.5,46.3,30.28,North,360,0.0,3.0,92,0.00,,,0.00,Wunderground PWS Mod,2013-10-10 04:56:00,
2013-10-10 01:02:00,48.5,46.3,30.28,NNE,16,0.0,3.0,92,0.00,,,0.00,Wunderground PWS Mod,2013-10-10 05:02:00,
2013-10-10 01:07:00,48.4,46.2,30.28,NNW,337,0.0,3.0,92,0.00,,,0.00,Wunderground PWS Mod,2013-10-10 05:07:00,
2013-10-10 01:13:00,48.3,46.1,30.28,NNW,341,0.0,3.0,92,0.00,,,0.00,Wunderground PWS Mod,2013-10-10 05:13:00,
2013-10-10 01:18:00,48.3,46.4,30.28,NNW,346,0.0,3.0,93,0.00,,,0.00,Wunderground PWS Mod,2013-10-10 05:18:00,
2013-10-10 01:23:00,48.3,46.4,30.28,NNW,346,0.0,3.0,93,0.00,,,0.00,Wunderground PWS Mod,2013-10-10 05:23:00,
2013-10-10 01:28:00,48.2,46.3,30.28,North,355,0.0,3.0,93,0.00,,,0.00,Wunderground PWS Mod,2013-10-10 05:28:00,
2013-10-10 01:35:00,48.2,46.3,30.28,NNE,32,0.0,3.0,93,0.00,,,0.00,Wunderground PWS Mod,2013-10-10 05:35:00,
2013-10-10 01:40:00,48.2,46.3,30.28,NE,49,0.0,3.0,93,0.00,,,0.00,Wunderground PWS Mod,2013-10-10 05:40:00,
2013-10-10 01:45:00,48.2,46.3,30.28,NE,37,0.0,3.0,93,0.00,,,0.00,Wunderground PWS Mod,2013-10-10 05:45:00,
2013-10-10 01:50:00,48.2,46.6,30.28,NE,49,0.0,3.0,94,0.00,,,0.00,Wunderground PWS Mod,2013-10-10 05:50:00,
2013-10-10 01:55:00,48.2,46.6,30.28,North,11,0.0,3.0,94,0.00,,,0.00,Wunderground PWS Mod,2013-10-10 05:55:00,
2013-10-10 02:01:00,48.2,46.6,30.28,NNE,17,0.0,3.0,94,0.00,,,0.00,Wunderground PWS Mod,2013-10-10 06:01:00,
2013-10-10 02:07:00,48.2,46.6,30.28,NNE,17,0.0,3.0,94,0.00,,,0.00,Wunderground PWS Mod,2013-10-10 06:07:00,
2013-10-10 02:12:00,48.1,46.5,30.28,NNE,15,0.0,3.0,94,0.00,,,0.00,Wunderground PWS Mod,2013-10-10 06:12:00,
2013-10-10 02:18:00,48.1,46.5,30.28,North,355,0.0,3.0,94,0.00,,,0.00,Wunderground PWS Mod,2013-10-10 06:18:00,
2013-10-10 02:23:00,48.1,46.5,30.27,NNE,19,0.0,3.0,94,0.00,,,0.00,Wunderground PWS Mod,2013-10-10 06:23:00,
2013-10-10 02:29:00,48.1,46.5,30.27,NNE,30,0.0,3.0,94,0.00,,,0.00,Wunderground PWS Mod,2013-10-10 06:29:00,
2013-10-10 02:34:00,48.1,46.5,30.27,NNE,22,0.0,3.0,94,0.00,,,0.00,Wunderground PWS Mod,2013-10-10 06:34:00,
2013-10-10 02:40:00,48.1,46.5,30.26,NNE,30,0.0,3.0,94,0.00,,,0.00,Wunderground PWS Mod,2013-10-10 06:40:00,
2013-10-10 02:45:00,48.1,46.5,30.26,NE,44,0.0,3.0,94,0.00,,,0.00,Wunderground PWS Mod,2013-10-10 06:45:00,
2013-10-10 02:51:00,48.2,46.6,30.25,NE,44,0.0,3.0,94,0.00,,,0.00,Wunderground PWS Mod,2013-10-10 06:51:00,
2013-10-10 02:56:00,48.2,46.6,30.25,NE,49,0.0,3.0,94,0.00,,,0.00,Wunderground PWS Mod,2013-10-10 06:56:00,
2013-10-10 03:01:00,48.2,46.6,30.25,NE,53,0.0,3.0,94,0.00,,,0.00,Wunderground PWS Mod,2013-10-10 07:01:00,
2013-10-10 03:07:00,48.3,46.7,30.25,ENE,67,0.0,3.0,94,0.00,,,0.00,Wunderground PWS Mod,2013-10-10 07:07:00,
2013-10-10 03:12:00,48.4,46.8,30.25,ENE,74,0.0,3.0,94,0.00,,,0.00,Wunderground PWS Mod,2013-10-10 07:12:00,
2013-10-10 03:17:00,48.5,46.9,30.25,East,82,0.0,3.0,94,0.00,,,0.00,Wunderground PWS Mod,2013-10-10 07:17:00,
2013-10-10 03:23:00,48.5,46.6,30.25,ENE,72,0.0,3.0,93,0.00,,,0.00,Wunderground PWS Mod,2013-10-10 07:23:00,
2013-10-10 03:28:00,48.6,46.7,30.25,ENE,69,0.0,3.0,93,0.00,,,0.00,Wunderground PWS Mod,2013-10-10 07:28:00,
2013-10-10 03:33:00,48.6,46.7,30.25,ENE,71,0.0,3.0,93,0.00,,,0.00,Wunderground PWS Mod,2013-10-10 07:33:00,
2013-10-10 03:39:00,48.6,46.7,30.25,East,82,0.0,3.0,93,0.00,,,0.00,Wunderground PWS Mod,2013-10-10 07:39:00,
2013-10-10 03:44:00,48.6,46.7,30.25,ENE,63,0.0,3.0,93,0.00,,,0.00,Wunderground PWS Mod,2013-10-10 07:44:00,
2013-10-10 03:50:00,48.7,46.8,30.25,ENE,63,0.0,3.0,93,0.00,,,0.00,Wunderground PWS Mod,2013-10-10 07:50:00,
2013-10-10 03:55:00,48.6,46.7,30.25,NE,55,0.0,3.0,93,0.00,,,0.00,Wunderground PWS Mod,2013-10-10 07:55:00,
2013-10-10 04:01:00,48.6,46.7,30.25,ENE,60,0.0,3.0,93,0.00,,,0.00,Wunderground PWS Mod,2013-10-10 08:01:00,
2013-10-10 04:07:00,48.5,46.6,30.25,NNE,20,0.0,0.0,93,0.00,,,0.00,Wunderground PWS Mod,2013-10-10 08:07:00,
2013-10-10 04:09:00,48.6,46.7,30.25,N/A,-737280,0.0,0.0,93,0.00,,,0.00,Wunderground PWS Mod,2013-10-10 08:09:00,
2013-10-10 04:11:00,48.6,46.7,30.25,N/A,-737280,0.0,0.0,93,0.00,,,0.00,Wunderground PWS Mod,2013-10-10 08:11:00,
2013-10-10 04:13:00,48.6,46.7,30.25,NE,44,0.0,0.0,93,0.00,,,0.00,Wunderground PWS Mod,2013-10-10 08:13:00,
2013-10-10 04:15:00,48.6,46.7,30.24,North,0,0.0,4.0,93,0.00,,,0.00,Wunderground PWS Mod,2013-10-10 08:15:00,
2013-10-10 04:18:00,48.7,47.1,30.25,NE,44,0.0,0.0,94,0.00,,,0.00,Wunderground PWS Mod,2013-10-10 08:18:00,
2013-10-10 04:25:00,48.6,46.7,30.25,NNE,25,0.0,0.0,93,0.00,,,0.00,Wunderground PWS Mod,2013-10-10 08:25:00,
2013-10-10 04:30:00,48.6,46.7,30.24,NE,47,0.0,0.0,93,0.00,,,0.00,Wunderground PWS Mod,2013-10-10 08:30:00,
2013-10-10 04:35:00,48.6,46.7,30.25,East,80,0.0,0.0,93,0.00,,,0.00,Wunderground PWS Mod,2013-10-10 08:35:00,
2013-10-10 04:41:00,48.6,46.7,30.25,East,80,0.0,0.0,93,0.00,,,0.00,Wunderground PWS Mod,2013-10-10 08:41:00,
2013-10-10 04:47:00,48.6,46.7,30.25,East,80,0.0,0.0,93,0.00,,,0.00,Wunderground PWS Mod,2013-10-10 08:47:00,
2013-10-10 04:52:00,48.7,46.8,30.25,North,351,0.0,0.0,93,0.00,,,0.00,Wunderground PWS Mod,2013-10-10 08:52:00,
2013-10-10 04:58:00,48.6,46.7,30.25,NNE,22,0.0,0.0,93,0.00,,,0.00,Wunderground PWS Mod,2013-10-10 08:58:00,
2013-10-10 05:03:00,48.6,46.7,30.25,NNE,22,0.0,0.0,93,0.00,,,0.00,Wunderground PWS Mod,2013-10-10 09:03:00,
2013-10-10 05:08:00,48.7,47.1,30.25,NNE,30,0.0,0.0,94,0.00,,,0.00,Wunderground PWS Mod,2013-10-10 09:08:00,
2013-10-10 05:15:00,48.6,46.7,30.25,NNE,30,0.0,0.0,93,0.00,,,0.00,Wunderground PWS Mod,2013-10-10 09:15:00,
2013-10-10 05:20:00,48.6,47.0,30.25,NNE,30,0.0,0.0,94,0.00,,,0.00,Wunderground PWS Mod,2013-10-10 09:20:00,
2013-10-10 05:25:00,48.6,47.0,30.25,NNE,30,0.0,0.0,94,0.00,,,0.00,Wunderground PWS Mod,2013-10-10 09:25:00,
2013-10-10 05:31:00,48.6,46.7,30.25,NNE,29,0.0,0.0,93,0.00,,,0.00,Wunderground PWS Mod,2013-10-10 09:31:00,
2013-10-10 05:36:00,48.6,46.7,30.25,NNE,28,0.0,0.0,93,0.00,,,0.00,Wunderground PWS Mod,2013-10-10 09:36:00,
2013-10-10 05:42:00,48.5,46.9,30.25,NNE,28,0.0,0.0,94,0.00,,,0.00,Wunderground PWS Mod,2013-10-10 09:42:00,
2013-10-10 05:47:00,48.4,46.8,30.25,NE,34,0.0,0.0,94,0.00,,,0.00,Wunderground PWS Mod,2013-10-10 09:47:00,
2013-10-10 05:53:00,48.3,46.7,30.24,NE,34,0.0,0.0,94,0.00,,,0.00,Wunderground PWS Mod,2013-10-10 09:53:00,
2013-10-10 05:58:00,48.4,46.8,30.25,NNE,22,0.0,0.0,94,0.00,,,0.00,Wunderground PWS Mod,2013-10-10 09:58:00,
2013-10-10 06:03:00,48.4,46.8,30.25,NNE,27,0.0,0.0,94,0.00,,,0.00,Wunderground PWS Mod,2013-10-10 10:03:00,
2013-10-10 06:09:00,48.5,46.9,30.24,NE,37,0.0,0.0,94,0.00,,,0.00,Wunderground PWS Mod,2013-10-10 10:09:00,
2013-10-10 06:15:00,48.5,46.9,30.23,NNE,31,0.0,2.0,94,0.00,,,0.00,Wunderground PWS Mod,2013-10-10 10:15:00,
2013-10-10 06:20:00,48.5,46.9,30.23,NE,36,1.0,1.0,94,0.00,,,0.00,Wunderground PWS Mod,2013-10-10 10:20:00,
2013-10-10 06:25:00,48.6,47.0,30.23,NE,44,1.0,1.0,94,0.00,,,0.00,Wunderground PWS Mod,2013-10-10 10:25:00,
2013-10-10 06:30:00,48.7,46.8,30.23,NE,38,1.0,1.0,93,0.00,,,0.00,Wunderground PWS Mod,2013-10-10 10:30:00,
2013-10-10 06:36:00,48.7,46.8,30.23,East,84,0.0,0.0,93,0.00,,,0.00,Wunderground PWS Mod,2013-10-10 10:36:00,
2013-10-10 06:42:00,48.8,46.9,30.23,ENE,72,1.0,1.0,93,0.00,,,0.00,Wunderground PWS Mod,2013-10-10 10:42:00,
2013-10-10 06:47:00,48.8,46.9,30.23,NNE,13,0.0,1.0,93,0.00,,,0.00,Wunderground PWS Mod,2013-10-10 10:47:00,
2013-10-10 06:53:00,48.9,47.0,30.24,North,9,0.0,1.0,93,0.00,,,0.00,Wunderground PWS Mod,2013-10-10 10:53:00,
2013-10-10 06:58:00,49.0,47.1,30.23,NNE,23,0.0,0.0,93,0.00,,,0.00,Wunderground PWS Mod,2013-10-10 10:58:00,
2013-10-10 07:05:00,49.0,47.1,30.24,NNE,27,0.0,0.0,93,0.00,,,0.00,Wunderground PWS Mod,2013-10-10 11:05:00,
2013-10-10 07:10:00,49.0,47.1,30.24,NNE,27,0.0,0.0,93,0.00,,,0.00,Wunderground PWS Mod,2013-10-10 11:10:00,
2013-10-10 07:15:00,49.1,47.2,30.24,NNE,27,0.0,0.0,93,0.00,,,0.00,Wunderground PWS Mod,2013-10-10 11:15:00,
2013-10-10 07:20:00,49.1,47.2,30.24,NE,44,0.0,0.0,93,0.00,,,0.00,Wunderground PWS Mod,2013-10-10 11:20:00,
2013-10-10 07:26:00,49.2,47.3,30.23,NNE,30,0.0,0.0,93,0.00,,,0.00,Wunderground PWS Mod,2013-10-10 11:26:00,
2013-10-10 07:32:00,49.2,47.3,30.23,NNE,17,0.0,0.0,93,0.00,,,0.00,Wunderground PWS Mod,2013-10-10 11:32:00,
2013-10-10 07:37:00,49.3,47.4,30.23,NNE,28,1.0,1.0,93,0.00,,,0.00,Wunderground PWS Mod,2013-10-10 11:37:00,
2013-10-10 07:42:00,49.5,47.8,30.23,NNE,27,1.0,1.0,94,0.00,,,0.00,Wunderground PWS Mod,2013-10-10 11:42:00,
2013-10-10 07:48:00,49.7,47.8,30.24,NNE,27,0.0,0.0,93,0.00,,,0.00,Wunderground PWS Mod,2013-10-10 11:48:00,
2013-10-10 07:55:00,49.8,47.9,30.24,NNE,29,0.0,0.0,93,0.00,,,0.00,Wunderground PWS Mod,2013-10-10 11:55:00,
2013-10-10 08:00:00,49.9,48.0,30.24,North,355,0.0,0.0,93,0.00,,,0.00,Wunderground PWS Mod,2013-10-10 12:00:00,
2013-10-10 08:05:00,50.1,47.9,30.24,North,11,0.0,7.0,92,0.00,,,0.00,Wunderground PWS Mod,2013-10-10 12:05:00,
2013-10-10 08:11:00,50.3,48.1,30.24,NE,35,0.0,7.0,92,0.00,,,0.00,Wunderground PWS Mod,2013-10-10 12:11:00,
2013-10-10 08:14:00,50.0,47.8,30.24,NNE,23,0.0,7.0,92,0.00,,,0.00,Wunderground PWS Mod,2013-10-10 12:14:00,
2013-10-10 08:16:00,50.5,48.3,30.24,ENE,61,0.0,7.0,92,0.00,,,0.00,Wunderground PWS Mod,2013-10-10 12:16:00,
2013-10-10 08:22:00,50.6,48.4,30.24,ENE,61,0.0,7.0,92,0.00,,,0.00,Wunderground PWS Mod,2013-10-10 12:22:00,
2013-10-10 08:27:00,50.8,48.6,30.24,ENE,57,0.0,7.0,92,0.00,,,0.00,Wunderground PWS Mod,2013-10-10 12:27:00,
2013-10-10 08:32:00,50.9,48.4,30.24,NE,55,0.0,7.0,91,0.00,,,0.00,Wunderground PWS Mod,2013-10-10 12:32:00,
2013-10-10 08:38:00,51.1,48.9,30.24,NNE,12,0.0,7.0,92,0.00,,,0.00,Wunderground PWS Mod,2013-10-10 12:38:00,
2013-10-10 08:43:00,51.2,48.7,30.23,ENE,70,0.0,7.0,91,0.00,,,0.00,Wunderground PWS Mod,2013-10-10 12:43:00,
2013-10-10 08:49:00,51.4,49.2,30.23,ENE,74,0.0,7.0,92,0.00,,,0.00,Wunderground PWS Mod,2013-10-10 12:49:00,
2013-10-10 08:55:00,51.5,49.3,30.24,ENE,71,0.0,7.0,92,0.00,,,0.00,Wunderground PWS Mod,2013-10-10 12:55:00,
2013-10-10 09:00:00,51.7,49.2,30.23,NE,49,0.0,7.0,91,0.00,,,0.00,Wunderground PWS Mod,2013-10-10 13:00:00,
2013-10-10 09:06:00,51.8,49.3,30.24,NE,55,0.0,7.0,91,0.00,,,0.00,Wunderground PWS Mod,2013-10-10 13:06:00,
2013-10-10 09:11:00,52.0,49.5,30.23,ENE,65,0.0,7.0,91,0.00,,,0.00,Wunderground PWS Mod,2013-10-10 13:11:00,
2013-10-10 09:16:00,52.2,49.7,30.23,NE,44,0.0,7.0,91,0.00,,,0.00,Wunderground PWS Mod,2013-10-10 13:16:00,
2013-10-10 09:22:00,52.4,49.8,30.23,NE,54,0.0,7.0,91,0.00,,,0.00,Wunderground PWS Mod,2013-10-10 13:22:00,
2013-10-10 09:27:00,52.6,50.0,30.23,NE,46,1.0,7.0,91,0.00,,,0.00,Wunderground PWS Mod,2013-10-10 13:27:00,
2013-10-10 09:32:00,52.8,49.9,30.23,NE,34,1.0,7.0,90,0.00,,,0.00,Wunderground PWS Mod,2013-10-10 13:32:00,
2013-10-10 09:38:00,52.9,50.0,30.23,NE,55,1.0,7.0,90,0.00,,,0.00,Wunderground PWS Mod,2013-10-10 13:38:00,
2013-10-10 09:43:00,53.0,50.1,30.23,NE,49,1.0,7.0,90,0.00,,,0.00,Wunderground PWS Mod,2013-10-10 13:43:00,
2013-10-10 09:48:00,53.1,50.2,30.23,NE,46,0.0,7.0,90,0.00,,,0.00,Wunderground PWS Mod,2013-10-10 13:48:00,
2013-10-10 09:55:00,53.3,50.4,30.22,NNE,24,0.0,7.0,90,0.00,,,0.00,Wunderground PWS Mod,2013-10-10 13:55:00,
2013-10-10 10:00:00,53.5,50.9,30.22,NE,44,1.0,7.0,91,0.00,,,0.00,Wunderground PWS Mod,2013-10-10 14:00:00,
2013-10-10 10:06:00,53.6,50.7,30.22,NNW,342,1.0,7.0,90,0.00,,,0.00,Wunderground PWS Mod,2013-10-10 14:06:00,
2013-10-10 10:11:00,53.7,50.8,30.22,ENE,67,0.0,7.0,90,0.00,,,0.00,Wunderground PWS Mod,2013-10-10 14:11:00,
2013-10-10 10:17:00,53.9,51.0,30.22,ENE,59,0.0,7.0,90,0.00,,,0.00,Wunderground PWS Mod,2013-10-10 14:17:00,
2013-10-10 10:22:00,54.0,51.1,30.22,NE,50,0.0,7.0,90,0.00,,,0.00,Wunderground PWS Mod,2013-10-10 14:22:00,
2013-10-10 10:27:00,54.2,51.3,30.22,NE,42,1.0,7.0,90,0.00,,,0.00,Wunderground PWS Mod,2013-10-10 14:27:00,
2013-10-10 10:33:00,54.4,51.5,30.22,NE,51,1.0,7.0,90,0.00,,,0.00,Wunderground PWS Mod,2013-10-10 14:33:00,
2013-10-10 10:38:00,54.6,51.4,30.22,NE,40,0.0,7.0,89,0.00,,,0.00,Wunderground PWS Mod,2013-10-10 14:38:00,
2013-10-10 10:45:00,54.8,51.6,30.22,ENE,57,0.0,7.0,89,0.00,,,0.00,Wunderground PWS Mod,2013-10-10 14:45:00,
2013-10-10 10:50:00,55.1,51.9,30.22,NE,56,0.0,7.0,89,0.00,,,0.00,Wunderground PWS Mod,2013-10-10 14:50:00,
2013-10-10 10:55:00,55.4,52.2,30.21,NE,42,0.0,7.0,89,0.00,,,0.00,Wunderground PWS Mod,2013-10-10 14:55:00,
2013-10-10 11:01:00,55.7,52.5,30.21,NNE,32,1.0,7.0,89,0.00,,,0.00,Wunderground PWS Mod,2013-10-10 15:01:00,
2013-10-10 11:06:00,56.1,52.9,30.21,NNE,17,0.0,7.0,89,0.00,,,0.00,Wunderground PWS Mod,2013-10-10 15:06:00,
2013-10-10 11:11:00,56.6,53.1,30.21,NE,52,1.0,7.0,88,0.00,,,0.00,Wunderground PWS Mod,2013-10-10 15:11:00,
2013-10-10 11:16:00,57.1,53.3,30.21,ENE,74,1.0,7.0,87,0.00,,,0.00,Wunderground PWS Mod,2013-10-10 15:16:00,
2013-10-10 11:22:00,57.5,53.3,30.20,NE,37,1.0,7.0,86,0.00,,,0.00,Wunderground PWS Mod,2013-10-10 15:22:00,
2013-10-10 11:27:00,57.8,53.6,30.20,NE,49,0.0,7.0,86,0.00,,,0.00,Wunderground PWS Mod,2013-10-10 15:27:00,
2013-10-10 11:32:00,58.2,54.0,30.20,NNE,27,0.0,7.0,86,0.00,,,0.00,Wunderground PWS Mod,2013-10-10 15:32:00,
2013-10-10 11:37:00,58.4,53.9,30.20,East,89,1.0,7.0,85,0.00,,,0.00,Wunderground PWS Mod,2013-10-10 15:37:00,
2013-10-10 11:43:00,58.7,53.9,30.20,NNE,29,1.0,7.0,84,0.00,,,0.00,Wunderground PWS Mod,2013-10-10 15:43:00,
2013-10-10 11:48:00,58.9,54.1,30.20,ENE,73,1.0,7.0,84,0.00,,,0.00,Wunderground PWS Mod,2013-10-10 15:48:00,
2013-10-10 11:53:00,59.3,54.8,30.20,ENE,71,0.0,7.0,85,0.00,,,0.00,Wunderground PWS Mod,2013-10-10 15:53:00,
2013-10-10 11:58:00,60.0,55.2,30.20,North,360,0.0,7.0,84,0.00,,,0.00,Wunderground PWS Mod,2013-10-10 15:58:00,
2013-10-10 12:03:00,60.4,54.5,30.19,North,355,1.0,7.0,81,0.00,,,0.00,Wunderground PWS Mod,2013-10-10 16:03:00,
2013-10-10 12:09:00,61.1,55.2,30.20,North,360,1.0,7.0,81,0.00,,,0.00,Wunderground PWS Mod,2013-10-10 16:09:00,
2013-10-10 12:14:00,60.4,54.9,30.19,North,0,1.0,7.0,82,0.00,,,0.00,Wunderground PWS Mod,2013-10-10 16:14:00,
2013-10-10 12:15:00,61.6,55.4,30.19,ENE,60,1.0,7.0,80,0.00,,,0.00,Wunderground PWS Mod,2013-10-10 16:15:00,
2013-10-10 12:20:00,61.8,55.6,30.19,East,86,1.0,7.0,80,0.00,,,0.00,Wunderground PWS Mod,2013-10-10 16:20:00,
2013-10-10 12:25:00,61.9,56.0,30.19,NNE,25,1.0,7.0,81,0.00,,,0.00,Wunderground PWS Mod,2013-10-10 16:25:00,
2013-10-10 12:30:00,62.1,55.9,30.19,NNE,19,1.0,7.0,80,0.00,,,0.00,Wunderground PWS Mod,2013-10-10 16:30:00,
2013-10-10 12:35:00,62.2,55.6,30.19,ENE,74,0.0,7.0,79,0.00,,,0.00,Wunderground PWS Mod,2013-10-10 16:35:00,
2013-10-10 12:41:00,62.3,56.0,30.19,NE,44,1.0,7.0,80,0.00,,,0.00,Wunderground PWS Mod,2013-10-10 16:41:00,
2013-10-10 12:46:00,62.3,56.4,30.19,NNE,31,1.0,7.0,81,0.00,,,0.00,Wunderground PWS Mod,2013-10-10 16:46:00,
2013-10-10 12:51:00,62.4,56.1,30.19,NE,46,1.0,7.0,80,0.00,,,0.00,Wunderground PWS Mod,2013-10-10 16:51:00,
2013-10-10 12:56:00,62.5,56.2,30.18,NE,46,1.0,7.0,80,0.00,,,0.00,Wunderground PWS Mod,2013-10-10 16:56:00,
2013-10-10 13:02:00,62.7,56.4,30.18,NE,38,0.0,7.0,80,0.00,,,0.00,Wunderground PWS Mod,2013-10-10 17:02:00,
2013-10-10 13:07:00,62.8,56.5,30.18,ENE,71,0.0,7.0,80,0.00,,,0.00,Wunderground PWS Mod,2013-10-10 17:07:00,
2013-10-10 13:13:00,62.7,56.4,30.18,North,5,0.0,7.0,80,0.00,,,0.00,Wunderground PWS Mod,2013-10-10 17:13:00,
2013-10-10 13:18:00,62.8,57.2,30.18,NE,49,0.0,7.0,82,0.00,,,0.00,Wunderground PWS Mod,2013-10-10 17:18:00,
2013-10-10 13:23:00,62.7,57.1,30.18,North,360,0.0,7.0,82,0.00,,,0.00,Wunderground PWS Mod,2013-10-10 17:23:00,
2013-10-10 13:28:00,62.7,56.8,30.17,NNE,17,0.0,7.0,81,0.00,,,0.00,Wunderground PWS Mod,2013-10-10 17:28:00,
2013-10-10 13:33:00,62.6,56.7,30.17,North,355,0.0,7.0,81,0.00,,,0.00,Wunderground PWS Mod,2013-10-10 17:33:00,
2013-10-10 13:38:00,62.6,57.0,30.17,NNW,344,0.0,7.0,82,0.00,,,0.00,Wunderground PWS Mod,2013-10-10 17:38:00,
2013-10-10 13:45:00,62.5,56.9,30.17,NNW,348,0.0,7.0,82,0.00,,,0.00,Wunderground PWS Mod,2013-10-10 17:45:00,
2013-10-10 13:50:00,62.4,56.8,30.17,North,360,0.0,7.0,82,0.00,,,0.00,Wunderground PWS Mod,2013-10-10 17:50:00,
2013-10-10 13:55:00,62.4,56.8,30.17,North,360,0.0,7.0,82,0.00,,,0.00,Wunderground PWS Mod,2013-10-10 17:55:00,
2013-10-10 14:01:00,62.4,56.8,30.17,North,355,0.0,7.0,82,0.00,,,0.00,Wunderground PWS Mod,2013-10-10 18:01:00,
2013-10-10 14:07:00,62.4,57.5,30.16,North,355,0.0,7.0,84,0.00,,,0.00,Wunderground PWS Mod,2013-10-10 18:07:00,
2013-10-10 14:12:00,62.4,57.8,30.16,North,355,0.0,7.0,85,0.00,,,0.00,Wunderground PWS Mod,2013-10-10 18:12:00,
2013-10-10 14:17:00,62.3,57.4,30.16,SSE,149,0.0,7.0,84,0.00,,,0.00,Wunderground PWS Mod,2013-10-10 18:17:00,
2013-10-10 14:23:00,62.4,57.5,30.16,NE,53,0.0,7.0,84,0.00,,,0.00,Wunderground PWS Mod,2013-10-10 18:23:00,
2013-10-10 14:28:00,62.5,57.3,30.16,West,263,0.0,7.0,83,0.00,,,0.00,Wunderground PWS Mod,2013-10-10 18:28:00,
2013-10-10 14:33:00,62.7,57.5,30.16,SSE,166,0.0,7.0,83,0.00,,,0.00,Wunderground PWS Mod,2013-10-10 18:33:00,
2013-10-10 14:38:00,62.9,57.3,30.16,East,82,0.0,7.0,82,0.00,,,0.00,Wunderground PWS Mod,2013-10-10 18:38:00,
2013-10-10 14:45:00,63.2,57.6,30.16,ENE,63,0.0,7.0,82,0.00,,,0.00,Wunderground PWS Mod,2013-10-10 18:45:00,
2013-10-10 14:50:00,63.4,57.5,30.16,NNE,32,0.0,7.0,81,0.00,,,0.00,Wunderground PWS Mod,2013-10-10 18:50:00,
2013-10-10 14:55:00,63.3,57.4,30.16,ENE,76,1.0,7.0,81,0.00,,,0.00,Wunderground PWS Mod,2013-10-10 18:55:00,
2013-10-10 15:01:00,63.2,57.6,30.15,SSW,201,0.0,7.0,82,0.00,,,0.00,Wunderground PWS Mod,2013-10-10 19:01:00,
2013-10-10 15:06:00,63.1,57.2,30.15,East,81,0.0,7.0,81,0.00,,,0.00,Wunderground PWS Mod,2013-10-10 19:06:00,
2013-10-10 15:11:00,62.9,57.0,30.15,ENE,63,0.0,7.0,81,0.00,,,0.00,Wunderground PWS Mod,2013-10-10 19:11:00,
2013-10-10 15:16:00,62.7,57.1,30.15,NNW,343,0.0,7.0,82,0.00,,,0.00,Wunderground PWS Mod,2013-10-10 19:16:00,
2013-10-10 15:21:00,62.6,57.0,30.15,ENE,59,0.0,7.0,82,0.00,,,0.00,Wunderground PWS Mod,2013-10-10 19:21:00,
2013-10-10 15:26:00,62.5,56.9,30.14,NE,34,0.0,7.0,82,0.00,,,0.00,Wunderground PWS Mod,2013-10-10 19:26:00,
2013-10-10 15:32:00,62.4,56.8,30.14,NE,34,0.0,7.0,82,0.00,,,0.00,Wunderground PWS Mod,2013-10-10 19:32:00,
2013-10-10 15:38:00,62.4,56.8,30.14,ENE,71,0.0,7.0,82,0.00,,,0.00,Wunderground PWS Mod,2013-10-10 19:38:00,
2013-10-10 15:43:00,62.4,57.2,30.13,NE,50,0.0,7.0,83,0.00,,,0.00,Wunderground PWS Mod,2013-10-10 19:43:00,
2013-10-10 15:48:00,62.3,56.7,30.13,East,86,0.0,7.0,82,0.00,,,0.00,Wunderground PWS Mod,2013-10-10 19:48:00,
2013-10-10 15:55:00,62.2,57.0,30.13,West,262,0.0,7.0,83,0.00,,,0.00,Wunderground PWS Mod,2013-10-10 19:55:00,
2013-10-10 16:00:00,62.1,57.2,30.13,NNE,17,0.0,7.0,84,0.00,,,0.00,Wunderground PWS Mod,2013-10-10 20:00:00,
2013-10-10 16:05:00,62.0,56.8,30.13,East,94,0.0,7.0,83,0.00,,,0.00,Wunderground PWS Mod,2013-10-10 20:05:00,
2013-10-10 16:11:00,62.1,56.9,30.14,NE,43,0.0,2.0,83,0.00,,,0.00,Wunderground PWS Mod,2013-10-10 20:11:00,
2013-10-10 16:14:00,62.0,56.8,30.13,North,0,0.0,2.0,83,0.00,,,0.00,Wunderground PWS Mod,2013-10-10 20:14:00,
2013-10-10 16:16:00,62.1,56.9,30.13,NE,43,0.0,2.0,83,0.00,,,0.00,Wunderground PWS Mod,2013-10-10 20:16:00,
2013-10-10 16:22:00,62.1,57.2,30.13,NNE,28,0.0,2.0,84,0.00,,,0.00,Wunderground PWS Mod,2013-10-10 20:22:00,
2013-10-10 16:27:00,62.1,57.2,30.13,ENE,59,0.0,2.0,84,0.00,,,0.00,Wunderground PWS Mod,2013-10-10 20:27:00,
2013-10-10 16:33:00,62.0,56.8,30.13,ENE,61,0.0,2.0,83,0.00,,,0.00,Wunderground PWS Mod,2013-10-10 20:33:00,
2013-10-10 16:35:00,62.0,56.4,30.13,NW,320,0.0,2.0,82,0.00,,,0.00,Wunderground PWS Mod,2013-10-10 20:35:00,
2013-10-10 16:40:00,62.0,56.4,30.12,NNE,24,0.0,2.0,82,0.00,,,0.00,Wunderground PWS Mod,2013-10-10 20:40:00,
2013-10-10 16:45:00,62.0,57.1,30.12,SSW,205,0.0,2.0,84,0.00,,,0.00,Wunderground PWS Mod,2013-10-10 20:45:00,
2013-10-10 16:51:00,61.9,56.7,30.12,NNE,27,0.0,2.0,83,0.00,,,0.00,Wunderground PWS Mod,2013-10-10 20:51:00,
2013-10-10 16:56:00,61.9,56.7,30.12,NNE,22,0.0,2.0,83,0.00,,,0.00,Wunderground PWS Mod,2013-10-10 20:56:00,
2013-10-10 17:02:00,61.8,56.2,30.12,NE,43,0.0,2.0,82,0.00,,,0.00,Wunderground PWS Mod,2013-10-10 21:02:00,
2013-10-10 17:07:00,61.8,56.6,30.12,ENE,72,0.0,2.0,83,0.00,,,0.00,Wunderground PWS Mod,2013-10-10 21:07:00,
2013-10-10 17:13:00,61.7,56.5,30.12,NNE,26,0.0,2.0,83,0.00,,,0.00,Wunderground PWS Mod,2013-10-10 21:13:00,
2013-10-10 17:18:00,61.7,56.1,30.11,NNE,13,1.0,2.0,82,0.00,,,0.00,Wunderground PWS Mod,2013-10-10 21:18:00,
2013-10-10 17:25:00,61.6,56.0,30.12,NE,41,0.0,2.0,82,0.00,,,0.00,Wunderground PWS Mod,2013-10-10 21:25:00,
2013-10-10 17:30:00,61.6,56.4,30.11,ENE,58,0.0,2.0,83,0.00,,,0.00,Wunderground PWS Mod,2013-10-10 21:30:00,
2013-10-10 17:35:00,61.5,56.3,30.11,North,5,0.0,2.0,83,0.00,,,0.00,Wunderground PWS Mod,2013-10-10 21:35:00,
2013-10-10 17:41:00,61.2,56.3,30.11,NNE,31,0.0,2.0,84,0.00,,,0.00,Wunderground PWS Mod,2013-10-10 21:41:00,
2013-10-10 17:46:00,61.1,56.2,30.11,NNE,18,0.0,2.0,84,0.00,,,0.00,Wunderground PWS Mod,2013-10-10 21:46:00,
2013-10-10 17:52:00,61.0,56.5,30.11,North,9,0.0,4.0,85,0.00,,,0.00,Wunderground PWS Mod,2013-10-10 21:52:00,
2013-10-10 17:57:00,60.8,56.3,30.11,NE,34,0.0,2.0,85,0.00,,,0.00,Wunderground PWS Mod,2013-10-10 21:57:00,
2013-10-10 18:02:00,60.5,56.0,30.11,NNE,25,1.0,2.0,85,0.00,,,0.00,Wunderground PWS Mod,2013-10-10 22:02:00,
2013-10-10 18:08:00,60.3,56.1,30.11,North,5,0.0,2.0,86,0.00,,,0.00,Wunderground PWS Mod,2013-10-10 22:08:00,
2013-10-10 18:13:00,60.2,56.0,30.11,NNE,26,0.0,2.0,86,0.00,,,0.00,Wunderground PWS Mod,2013-10-10 22:13:00,
2013-10-10 18:18:00,60.0,56.1,30.11,NNE,23,0.0,2.0,87,0.00,,,0.00,Wunderground PWS Mod,2013-10-10 22:18:00,
2013-10-10 18:23:00,59.9,56.0,30.11,NNE,30,0.0,2.0,87,0.00,,,0.00,Wunderground PWS Mod,2013-10-10 22:23:00,
2013-10-10 18:28:00,59.7,55.8,30.11,NNE,31,0.0,2.0,87,0.00,,,0.00,Wunderground PWS Mod,2013-10-10 22:28:00,
2013-10-10 18:35:00,59.6,55.7,30.11,NNE,26,0.0,2.0,87,0.00,,,0.00,Wunderground PWS Mod,2013-10-10 22:35:00,
2013-10-10 18:40:00,59.6,56.0,30.12,NNE,26,0.0,2.0,88,0.00,,,0.00,Wunderground PWS Mod,2013-10-10 22:40:00,
2013-10-10 18:45:00,59.5,55.9,30.12,North,355,0.0,2.0,88,0.00,,,0.00,Wunderground PWS Mod,2013-10-10 22:45:00,
2013-10-10 18:50:00,59.5,55.9,30.12,NNE,32,0.0,2.0,88,0.00,,,0.00,Wunderground PWS Mod,2013-10-10 22:50:00,
2013-10-10 18:56:00,59.4,55.8,30.12,NNE,32,0.0,2.0,88,0.00,,,0.00,Wunderground PWS Mod,2013-10-10 22:56:00,
2013-10-10 19:02:00,59.4,55.8,30.13,NNE,26,0.0,2.0,88,0.00,,,0.00,Wunderground PWS Mod,2013-10-10 23:02:00,
2013-10-10 19:07:00,59.4,55.8,30.13,NE,36,0.0,2.0,88,0.00,,,0.00,Wunderground PWS Mod,2013-10-10 23:07:00,
2013-10-10 19:13:00,59.3,55.7,30.13,NNE,20,0.0,2.0,88,0.00,,,0.00,Wunderground PWS Mod,2013-10-10 23:13:00,
2013-10-10 19:18:00,59.2,55.6,30.13,NE,41,0.0,2.0,88,0.00,,,0.00,Wunderground PWS Mod,2013-10-10 23:18:00,
2013-10-10 19:23:00,59.1,55.5,30.13,NNE,19,0.0,2.0,88,0.00,,,0.00,Wunderground PWS Mod,2013-10-10 23:23:00,
2013-10-10 19:28:00,59.0,55.4,30.13,NNE,23,0.0,2.0,88,0.00,,,0.00,Wunderground PWS Mod,2013-10-10 23:28:00,
2013-10-10 19:35:00,58.9,55.4,30.13,NNE,30,0.0,2.0,88,0.00,,,0.00,Wunderground PWS Mod,2013-10-10 23:35:00,
2013-10-10 19:40:00,58.8,55.6,30.13,NNE,30,0.0,2.0,89,0.00,,,0.00,Wunderground PWS Mod,2013-10-10 23:40:00,
2013-10-10 19:45:00,58.7,55.5,30.12,NE,47,0.0,2.0,89,0.00,,,0.00,Wunderground PWS Mod,2013-10-10 23:45:00,
2013-10-10 19:51:00,58.6,55.1,30.13,NNE,15,0.0,2.0,88,0.00,,,0.00,Wunderground PWS Mod,2013-10-10 23:51:00,
2013-10-10 19:56:00,58.5,55.0,30.13,SE,143,0.0,2.0,88,0.00,,,0.00,Wunderground PWS Mod,2013-10-10 23:56:00,
2013-10-10 20:01:00,58.4,54.9,30.12,NNW,337,0.0,2.0,88,0.00,,,0.00,Wunderground PWS Mod,2013-10-11 00:01:00,
2013-10-10 20:07:00,58.3,55.1,30.12,NNE,15,0.0,4.0,89,0.00,,,0.00,Wunderground PWS Mod,2013-10-11 00:07:00,
2013-10-10 20:12:00,58.2,55.0,30.12,NE,34,0.0,4.0,89,0.00,,,0.00,Wunderground PWS Mod,2013-10-11 00:12:00,
2013-10-10 20:14:00,58.4,55.2,30.12,NE,45,0.0,4.0,89,0.00,,,0.00,Wunderground PWS Mod,2013-10-11 00:14:00,
2013-10-10 20:17:00,58.0,54.8,30.12,North,355,0.0,4.0,89,0.00,,,0.00,Wunderground PWS Mod,2013-10-11 00:17:00,
2013-10-10 20:23:00,57.9,55.0,30.12,NE,38,0.0,4.0,90,0.00,,,0.00,Wunderground PWS Mod,2013-10-11 00:23:00,
2013-10-10 20:28:00,57.8,54.9,30.12,NNW,342,0.0,4.0,90,0.00,,,0.00,Wunderground PWS Mod,2013-10-11 00:28:00,
2013-10-10 20:35:00,57.6,54.7,30.12,NNE,33,0.0,4.0,90,0.00,,,0.00,Wunderground PWS Mod,2013-10-11 00:35:00,
2013-10-10 20:40:00,57.5,54.6,30.12,ENE,76,0.0,4.0,90,0.00,,,0.00,Wunderground PWS Mod,2013-10-11 00:40:00,
2013-10-10 20:45:00,57.5,54.6,30.12,North,9,0.0,4.0,90,0.00,,,0.00,Wunderground PWS Mod,2013-10-11 00:45:00,
2013-10-10 20:51:00,57.3,54.4,30.12,NNE,27,0.0,4.0,90,0.00,,,0.00,Wunderground PWS Mod,2013-10-11 00:51:00,
2013-10-10 20:56:00,57.2,54.3,30.12,NE,40,0.0,4.0,90,0.00,,,0.00,Wunderground PWS Mod,2013-10-11 00:56:00,
2013-10-10 21:02:00,57.1,54.5,30.12,East,97,0.0,4.0,91,0.00,,,0.00,Wunderground PWS Mod,2013-10-11 01:02:00,
2013-10-10 21:07:00,57.0,54.4,30.11,NE,35,0.0,4.0,91,0.00,,,0.00,Wunderground PWS Mod,2013-10-11 01:07:00,
2013-10-10 21:13:00,56.8,54.2,30.12,ENE,62,0.0,4.0,91,0.00,,,0.00,Wunderground PWS Mod,2013-10-11 01:13:00,
2013-10-10 21:18:00,56.7,54.1,30.12,NNE,24,0.0,4.0,91,0.00,,,0.00,Wunderground PWS Mod,2013-10-11 01:18:00,
2013-10-10 21:23:00,56.6,54.3,30.12,NE,39,0.0,4.0,92,0.00,,,0.00,Wunderground PWS Mod,2013-10-11 01:23:00,
2013-10-10 21:28:00,56.5,54.2,30.12,NE,36,0.0,4.0,92,0.00,,,0.00,Wunderground PWS Mod,2013-10-11 01:28:00,
2013-10-10 21:33:00,56.4,54.1,30.12,NNE,19,0.0,4.0,92,0.00,,,0.00,Wunderground PWS Mod,2013-10-11 01:33:00,
2013-10-10 21:38:00,56.3,54.0,30.11,North,355,0.0,4.0,92,0.00,,,0.00,Wunderground PWS Mod,2013-10-11 01:38:00,
2013-10-10 21:45:00,56.2,53.9,30.11,NNE,30,0.0,4.0,92,0.00,,,0.00,Wunderground PWS Mod,2013-10-11 01:45:00,
2013-10-10 21:50:00,56.2,53.9,30.12,NE,40,0.0,4.0,92,0.00,,,0.00,Wunderground PWS Mod,2013-10-11 01:50:00,
2013-10-10 21:56:00,56.0,53.7,30.12,NE,42,0.0,4.0,92,0.00,,,0.00,Wunderground PWS Mod,2013-10-11 01:56:00,
2013-10-10 22:01:00,56.0,54.0,30.12,NE,55,0.0,4.0,93,0.00,,,0.00,Wunderground PWS Mod,2013-10-11 02:01:00,
2013-10-10 22:06:00,56.0,54.0,30.11,ENE,76,0.0,4.0,93,0.00,,,0.00,Wunderground PWS Mod,2013-10-11 02:06:00,
2013-10-10 22:12:00,56.0,53.7,30.11,NE,34,0.0,4.0,92,0.00,,,0.00,Wunderground PWS Mod,2013-10-11 02:12:00,
2013-10-10 22:17:00,56.0,53.7,30.12,NE,48,0.0,4.0,92,0.00,,,0.00,Wunderground PWS Mod,2013-10-11 02:17:00,
2013-10-10 22:23:00,56.0,53.7,30.12,NE,54,0.0,4.0,92,0.00,,,0.00,Wunderground PWS Mod,2013-10-11 02:23:00,
2013-10-10 22:28:00,56.0,53.7,30.11,North,360,0.0,4.0,92,0.00,,,0.00,Wunderground PWS Mod,2013-10-11 02:28:00,
2013-10-10 22:33:00,56.0,53.7,30.11,ENE,76,1.0,4.0,92,0.00,,,0.00,Wunderground PWS Mod,2013-10-11 02:33:00,
2013-10-10 22:38:00,56.0,53.7,30.11,NNE,26,1.0,4.0,92,0.00,,,0.00,Wunderground PWS Mod,2013-10-11 02:38:00,
2013-10-10 22:45:00,56.0,53.7,30.11,NNE,33,1.0,4.0,92,0.00,,,0.00,Wunderground PWS Mod,2013-10-11 02:45:00,
2013-10-10 22:50:00,55.9,53.6,30.11,NE,50,1.0,4.0,92,0.00,,,0.00,Wunderground PWS Mod,2013-10-11 02:50:00,
2013-10-10 22:55:00,55.9,53.6,30.11,NNE,26,0.0,4.0,92,0.00,,,0.00,Wunderground PWS Mod,2013-10-11 02:55:00,
2013-10-10 23:00:00,55.9,53.9,30.11,NE,53,0.0,4.0,93,0.00,,,0.00,Wunderground PWS Mod,2013-10-11 03:00:00,
2013-10-10 23:06:00,55.9,53.9,30.10,NNE,27,0.0,4.0,93,0.00,,,0.00,Wunderground PWS Mod,2013-10-11 03:06:00,
2013-10-10 23:11:00,55.9,53.9,30.10,NE,52,0.0,4.0,93,0.00,,,0.00,Wunderground PWS Mod,2013-10-11 03:11:00,
2013-10-10 23:16:00,55.8,53.8,30.10,ENE,67,0.0,4.0,93,0.00,,,0.00,Wunderground PWS Mod,2013-10-11 03:16:00,
2013-10-10 23:21:00,55.8,53.8,30.09,ENE,72,0.0,4.0,93,0.00,,,0.00,Wunderground PWS Mod,2013-10-11 03:21:00,
2013-10-10 23:27:00,55.8,53.8,30.09,NE,43,0.0,4.0,93,0.00,,,0.00,Wunderground PWS Mod,2013-10-11 03:27:00,
2013-10-10 23:32:00,55.8,53.8,30.09,East,81,0.0,4.0,93,0.00,,,0.00,Wunderground PWS Mod,2013-10-11 03:32:00,
2013-10-10 23:38:00,55.8,53.8,30.08,East,92,0.0,4.0,93,0.00,,,0.00,Wunderground PWS Mod,2013-10-11 03:38:00,
2013-10-10 23:44:00,55.8,53.8,30.08,NNW,338,0.0,6.0,93,0.00,,,0.00,Wunderground PWS Mod,2013-10-11 03:44:00,
2013-10-10 23:50:00,55.8,53.8,30.08,NE,51,1.0,4.0,93,0.00,,,0.00,Wunderground PWS Mod,2013-10-11 03:50:00,
2013-10-10 23:55:00,55.8,53.8,30.08,NE,38,1.0,4.0,93,0.00,,,0.00,Wunderground PWS Mod,2013-10-11 03:55:00,